Lid_Strength_Index
15 15 15 16 16 16 16 16 16 15 15 15 15 15 16 15 15 15 15 15 15 15 15 15 15 16 16 16 16 16 16 15
15 15 15 15 16 16 16 15 15 15 15 14 14 15 15 15 15 15 15 15 15 15 15 15 15 15 16 16 16 16 16 16
14 14 15 15 15 15 15 15 14 14 14 14 14 14 15 15 15 15 15 15 15 14 15 15 15 15 16 16 16 16 16 16
15 15 15 15 15 14 14 13 13 14 14 14 14 15 15 15 15 15 15 15 15 15 16 16 16 16 16 16 15 15 15 15
15 15 15 14 14 14 14 13 13 13 14 14 14 15 15 15 15 16 16 16 17 17 17 16 16 16 15 15 15 15 15 15
13 14 14 14 14 14 14 14 13 14 14 14 14 15 15 16 16 17 16 17 16 16 16 16 15 14 14 14 14 14 15 14
12 12 12 13 13 13 14 13 13 14 14 15 15 15 16 17 17 16 16 16 16 16 16 16 15 13 12 12 14 14 15 16
12 12 11 12 12 13 13 13 15 15 17 17 17 17 17 17 16 16 17 16 17 17 17 17 17 13 12 12 14 15 15 16
11 13 12 13 13 13 13 15 15 16 18 17 17 18 17 17 17 17 17 18 18 18 18 18 17 14 13 13 14 15 16 16
13 13 14 13 13 14 15 15 16 16 16 17 17 18 18 20 19 19 19 19 20 18 19 20 19 15 14 14 15 16 16 16
12 13 13 13 14 15 16 16 17 16 15 16 17 20 21 19 20 20 21 19 18 19 19 20 20 16 14 13 15 17 16 15
13 13 13 14 15 16 16 16 16 16 17 17 18 20 21 21 21 23 23 20 22 21 21 21 19 19 14 12 13 14 15 15
13 13 14 15 15 16 16 16 17 18 18 19 20 21 20 26 25 25 25 25 24 24 22 19 18 16 14 11 11 11 14 15
13 14 15 16 14 15 16 17 18 20 20 22 22 20 20 25 23 24 26 25 23 21 21 20 17 17 12 11 11 10 12 12
16 16 15 16 15 17 17 18 22 24 21 20 21 20 21 20 20 24 25 23 22 22 21 20 16 15 14 14 12 11 12 11
14 13 14 17 18 19 19 20 22 23 21 20 20 21 21 21 20 20 20 19 21 18 16 16 16 15 11 11 12 12 12 14
15 15 16 17 19 21 22 22 22 21 20 20 20 20 20 20 21 16 13 11 10 10 12 14 12 11 11 10 11 11 13 20
17 18 19 20 20 22 24 24 23 23 20 20 20 21 21 21 22 23 19 14 13 13 12 12 12 12 11 11 12 15 17 27
18 19 20 22 22 23 24 25 24 23 21 22 21 22 23 23 23 22 23 24 22 17 15 13 13 12 12 13 17 24 24 30
19 22 23 24 23 25 25 23 23 22 22 22 22 22 22 22 22 23 23 24 24 22 19 19 16 14 16 16 29 26 25 24